TimeCDT,TemperatureF,Dew PointF,Humidity,Sea Level PressureIn,VisibilityMPH,Wind Direction,Wind SpeedMPH,Gust SpeedMPH,PrecipitationIn,Events,Conditions,WindDirDegrees,DateUTC
12:15 AM,73.4,67.5,82,29.93,10.0,SSW,3.5,-,N/A,,Clear,210,2013-08-28 05:15:00
12:35 AM,72.5,67.3,84,29.93,10.0,SSW,3.5,-,N/A,,Clear,210,2013-08-28 05:35:00
12:55 AM,71.6,66.7,85,29.94,10.0,South,3.5,-,N/A,,Clear,190,2013-08-28 05:55:00
1:15 AM,71.8,66.9,85,29.94,10.0,South,3.5,-,N/A,,Clear,190,2013-08-28 06:15:00
1:35 AM,70.7,65.8,85,29.94,10.0,Calm,Calm,-,N/A,,Clear,0,2013-08-28 06:35:00
1:55 AM,70.2,66.0,87,29.94,10.0,Calm,Calm,-,N/A,,Clear,0,2013-08-28 06:55:00
2:15 AM,70.2,66.4,88,29.94,10.0,Calm,Calm,-,N/A,,Clear,0,2013-08-28 07:15:00
2:35 AM,69.8,66.0,88,29.94,10.0,Calm,Calm,-,N/A,,Clear,0,2013-08-28 07:35:00
2:55 AM,69.4,66.2,89,29.94,10.0,Calm,Calm,-,N/A,,Clear,0,2013-08-28 07:55:00
3:15 AM,69.4,65.7,88,29.94,10.0,Calm,Calm,-,N/A,,Clear,0,2013-08-28 08:15:00
3:35 AM,68.4,64.9,89,29.94,10.0,Calm,Calm,-,N/A,,Clear,0,2013-08-28 08:35:00
3:55 AM,67.6,64.0,88,29.94,10.0,SSE,3.5,-,N/A,,Clear,160,2013-08-28 08:55:00
4:15 AM,68.0,64.4,88,29.94,10.0,Calm,Calm,-,N/A,,Clear,0,2013-08-28 09:15:00
4:35 AM,67.6,63.5,87,29.94,10.0,SSW,3.5,-,N/A,,Clear,200,2013-08-28 09:35:00
4:55 AM,67.1,63.0,87,29.94,10.0,SSW,3.5,-,N/A,,Clear,210,2013-08-28 09:55:00
5:15 AM,67.1,62.6,85,29.95,10.0,SSW,3.5,-,N/A,,Clear,210,2013-08-28 10:15:00
5:35 AM,66.4,62.1,86,29.96,10.0,Calm,Calm,-,N/A,,Clear,0,2013-08-28 10:35:00
5:55 AM,66.6,62.2,86,29.96,10.0,Calm,Calm,-,N/A,,Clear,0,2013-08-28 10:55:00
6:15 AM,65.8,61.2,85,29.97,10.0,Calm,Calm,-,N/A,,Clear,0,2013-08-28 11:15:00
6:35 AM,66.7,62.2,85,29.98,10.0,Calm,Calm,-,N/A,,Clear,0,2013-08-28 11:35:00
6:55 AM,67.5,62.2,83,29.98,10.0,Calm,Calm,-,N/A,,Clear,0,2013-08-28 11:55:00
7:15 AM,67.1,62.6,85,29.98,10.0,Calm,Calm,-,N/A,,Clear,0,2013-08-28 12:15:00
7:35 AM,68.2,63.7,85,29.98,10.0,Calm,Calm,-,N/A,,Clear,0,2013-08-28 12:35:00
7:55 AM,71.2,65.7,82,29.99,10.0,Calm,Calm,-,N/A,,Clear,0,2013-08-28 12:55:00
8:15 AM,72.1,65.3,79,29.99,10.0,Calm,Calm,-,N/A,,Clear,0,2013-08-28 13:15:00
8:35 AM,74.1,64.6,72,29.99,10.0,Calm,Calm,-,N/A,,Clear,0,2013-08-28 13:35:00
8:55 AM,76.6,65.5,68,29.98,10.0,Calm,Calm,-,N/A,,Clear,0,2013-08-28 13:55:00
9:15 AM,78.4,65.3,64,29.99,10.0,Calm,Calm,-,N/A,,Clear,0,2013-08-28 14:15:00
9:35 AM,81.3,63.7,55,29.99,10.0,West,6.9,-,N/A,,Clear,270,2013-08-28 14:35:00
9:55 AM,82.4,63.9,53,30.00,10.0,West,6.9,-,N/A,,Clear,270,2013-08-28 14:55:00
10:15 AM,82.8,64.0,53,30.01,10.0,Calm,Calm,-,N/A,,Clear,0,2013-08-28 15:15:00
10:35 AM,84.6,64.2,50,30.01,10.0,West,4.6,-,N/A,,Clear,260,2013-08-28 15:35:00
10:55 AM,86.2,64.2,48,30.01,10.0,West,8.1,-,N/A,,Clear,280,2013-08-28 15:55:00
11:15 AM,86.9,65.3,48,30.01,10.0,WSW,4.6,-,N/A,,Clear,250,2013-08-28 16:15:00
11:35 AM,87.8,64.2,45,30.01,10.0,West,6.9,-,N/A,,Clear,260,2013-08-28 16:35:00
11:55 AM,88.7,64.4,44,30.00,10.0,WSW,5.8,-,N/A,,Clear,240,2013-08-28 16:55:00
12:15 PM,89.4,64.4,43,30.00,10.0,WSW,4.6,-,N/A,,Clear,250,2013-08-28 17:15:00
12:35 PM,90.0,64.0,42,30.00,10.0,WSW,3.5,-,N/A,,Clear,240,2013-08-28 17:35:00
12:55 PM,90.3,62.4,39,30.00,10.0,West,5.8,-,N/A,,Clear,270,2013-08-28 17:55:00
1:15 PM,91.8,62.6,38,30.00,10.0,SW,3.5,-,N/A,,Clear,230,2013-08-28 18:15:00
1:35 PM,92.3,63.9,39,29.99,10.0,WSW,3.5,-,N/A,,Clear,240,2013-08-28 18:35:00
1:55 PM,92.5,64.0,39,29.99,10.0,WSW,4.6,-,N/A,,Clear,240,2013-08-28 18:55:00
2:15 PM,93.4,63.5,37,29.99,10.0,SW,4.6,-,N/A,,Clear,220,2013-08-28 19:15:00
2:35 PM,94.1,62.8,35,29.99,10.0,WSW,3.5,-,N/A,,Clear,250,2013-08-28 19:35:00
2:55 PM,94.6,64.0,36,29.99,10.0,SW,4.6,-,N/A,,Clear,230,2013-08-28 19:55:00
3:15 PM,95.5,61.7,32,29.99,10.0,West,4.6,-,N/A,,Clear,270,2013-08-28 20:15:00
3:35 PM,95.9,62.1,32,29.98,10.0,West,8.1,-,N/A,,Clear,280,2013-08-28 20:35:00
3:55 PM,95.9,60.6,31,29.98,10.0,West,5.8,-,N/A,,Clear,280,2013-08-28 20:55:00
4:15 PM,95.5,60.6,31,29.97,10.0,Calm,Calm,-,N/A,,Clear,0,2013-08-28 21:15:00
4:35 PM,95.5,59.9,30,29.97,10.0,West,5.8,-,N/A,,Clear,260,2013-08-28 21:35:00
4:55 PM,94.3,61.3,33,29.97,10.0,WSW,5.8,-,N/A,,Clear,240,2013-08-28 21:55:00
5:15 PM,94.1,61.2,33,29.97,10.0,SW,6.9,-,N/A,,Clear,220,2013-08-28 22:15:00
5:35 PM,93.2,63.1,37,29.97,10.0,WSW,6.9,-,N/A,,Clear,240,2013-08-28 22:35:00
5:55 PM,92.7,63.5,38,29.97,10.0,WSW,4.6,-,N/A,,Clear,240,2013-08-28 22:55:00
6:15 PM,91.4,65.7,42,29.97,10.0,WSW,5.8,-,N/A,,Clear,250,2013-08-28 23:15:00
6:35 PM,90.3,66.9,46,29.97,10.0,SW,6.9,-,N/A,,Clear,230,2013-08-28 23:35:00
6:55 PM,88.3,66.4,48,29.98,10.0,WSW,4.6,-,N/A,,Clear,250,2013-08-28 23:55:00
7:15 PM,85.8,68.4,56,29.98,10.0,WSW,4.6,-,N/A,,Clear,240,2013-08-29 00:15:00
7:35 PM,83.3,68.5,61,29.98,10.0,SW,5.8,-,N/A,,Clear,230,2013-08-29 00:35:00
7:55 PM,81.1,68.4,65,29.99,10.0,SW,5.8,-,N/A,,Clear,230,2013-08-29 00:55:00
8:15 PM,79.3,68.0,68,29.99,10.0,SW,5.8,-,N/A,,Clear,230,2013-08-29 01:15:00
8:35 PM,78.6,67.1,68,30.00,10.0,SW,6.9,-,N/A,,Clear,230,2013-08-29 01:35:00
8:55 PM,78.8,66.4,66,30.00,10.0,SW,6.9,-,N/A,,Clear,220,2013-08-29 01:55:00
9:15 PM,78.6,66.0,65,30.00,10.0,SW,6.9,-,N/A,,Clear,230,2013-08-29 02:15:00
9:35 PM,76.3,66.2,71,30.00,10.0,SW,6.9,-,N/A,,Clear,230,2013-08-29 02:35:00
9:55 PM,75.6,65.3,70,30.00,10.0,WSW,6.9,-,N/A,,Clear,240,2013-08-29 02:55:00
10:15 PM,75.2,64.6,69,30.00,10.0,SW,8.1,-,N/A,,Clear,220,2013-08-29 03:15:00
10:35 PM,75.2,64.4,69,30.00,10.0,WSW,4.6,-,N/A,,Clear,240,2013-08-29 03:35:00
10:55 PM,74.1,64.2,71,30.01,10.0,West,3.5,-,N/A,,Clear,260,2013-08-29 03:55:00
11:15 PM,72.7,64.4,75,30.01,10.0,Calm,Calm,-,N/A,,Clear,0,2013-08-29 04:15:00
11:35 PM,72.5,64.2,75,30.01,10.0,Calm,Calm,-,N/A,,Clear,0,2013-08-29 04:35:00
11:55 PM,71.8,64.4,77,30.01,10.0,Calm,Calm,-,N/A,,Clear,0,2013-08-29 04:55:00